Terug naar catalogus

STARLINK-34376

ActiefCommunicatieVLEO
NORAD 64300·PAYLOAD·🇺🇸 United States

Gelanceerd Jun 8, 2025 vanaf Vandenberg Space Force Base

Loading…

Volgende Passages (komende 24 uur)

TLE

VersSource: CelesTrak SupGP

Epoch: Sep 14, 2026, 20:54 UTC

1 64300C 25123K   26257.87131944  .00004309  00000+0  14995-3 0  2578
2 64300  70.0002  75.7935 0003185 272.2646 248.2028 15.29566623    18

Volg STARLINK-34376 in realtime met AllMySat

Download on the App Store